This demonstration page uses our WeatherBlox Daily Observations layout. Learn more.

Left ArrowRight Arrow

39.08367, -84.50855

Hourly Observations for March 12, 2015

Temp ( °F °C ) Dew Point ( °F °C ) Humidity (%) Winds ( mph kmh ) Pressure ( in mb ) Visibility ( mi km ) Precip ( " mm )
12:53 am 00:53 Clear with Mist and Fog 42 5.6 40 4.4 92 92 N N/A 30.41 1030 3 4.82802 N/A
1:05 am 01:05 Clear with Mist and Fog 41 5 40 4.4 96 96 NE 3 6 30.42 1030 2.5 4.02335 N/A
1:26 am 01:26 Clear with Mist and Fog 41 5 39 4 93 93 NNE 7 11 30.42 1030 3 4.82802 N/A
1:53 am 01:53 Clear with Mist and Fog 41 5 39 3.9 93 93 N 6 9 30.42 1030 3 4.82802 N/A
2:53 am 02:53 Clear with Mist and Fog 39 3.9 37 2.8 93 93 NNE 7 11 30.42 1030 3 4.82802 N/A
3:18 am 03:18 Clear with Mist and Fog 37 3 37 3 100 100 ENE 5 7 30.45 1031 2.5 4.02335 N/A
3:45 am 03:45 Mostly Clear with Mist and Fog 38 3.3 37 2.8 97 97 ENE 5 7 30.48 1032 3 4.82802 N/A
3:53 am 03:53 Partly Cloudy with Mist and Fog 37 2.8 36 2.2 96 96 NE 7 11 30.45 1031 3 4.82802 N/A
4:04 am 04:04 Mostly Cloudy with Mist and Fog 38 3.3 37 2.8 97 97 NE 7 11 30.48 1032 3 4.82802 N/A
4:29 am 04:29 Mostly Cloudy with Mist and Fog 37 2.8 36 2.2 96 96 NNE 8 13 30.48 1032 2.5 4.02335 N/A
4:39 am 04:39 Mostly Cloudy with Mist and Fog 38 3.3 37 2.8 97 97 NE 9 15 30.48 1032 3 4.82802 N/A
4:53 am 04:53 Mostly Cloudy with Mist and Fog 37 2.8 36 2.2 96 96 NNE 3 6 30.46 1032 3 4.82802 N/A
5:22 am 05:22 Partly Cloudy with Mist and Fog 36 2.2 35 1.7 97 97 NE 3 6 30.5 1033 3 4.82802 N/A
5:53 am 05:53 Clear with Mist and Fog 35 1.7 34 1.1 96 96 NE 6 9 30.48 1032 2.5 4.02335 N/A
6:10 am 06:10 Clear with Mist and Fog 36 2 34 1 93 93 ENE 3 6 30.53 1034 3 4.82802 N/A
6:20 am 06:20 Clear with Mist and Fog 36 2 34 1 93 93 ENE 3 6 30.53 1034 2.5 4.02335 N/A
6:31 am 06:31 Clear with Mist and Fog 35 1.7 35 1.7 100 100 NE 3 6 30.53 1034 3 4.82802 N/A
6:53 am 06:53 Clear with Mist and Fog 34 1.1 34 1.1 100 100 NNE 3 6 30.51 1033 3 4.82802 N/A
7:53 am 07:53 Clear with Mist and Fog 33 0.6 32 undefined 96 96 NNE 6 9 30.51 1033 3 4.82802 N/A
8:53 am 08:53 Sunny with Mist and Fog 34 1.1 33 0.6 97 97 NNE 3 6 30.52 1034 3 4.82802 N/A
9:53 am 09:53 Hazy 39 3.9 34 1.1 82 82 NNE 8 13 30.54 1034 6 9.65604 N/A
10:53 am 10:53 Sunny 45 7.2 33 0.6 63 63 NE 8 13 30.54 1034 10 16.0934 N/A
11:53 am 11:53 Sunny 50 10 29 -1.7 44 44 E 13 20 30.55 1035 10 16.0934 N/A
12:53 pm 12:53 Sunny 52 11.1 29 -1.7 41 41 E 13 20 30.54 1034 10 16.0934 N/A
1:53 pm 13:53 Sunny 55 12.8 30 -1.1 38 38 NE 13 20 30.5 1033 10 16.0934 N/A
2:53 pm 14:53 Sunny 57 13.9 27 -2.8 32 32 ESE 13 20 30.48 1032 10 16.0934 N/A
3:53 pm 15:53 Sunny 59 15 30 -1.1 33 33 E 7 11 30.45 1031 10 16.0934 N/A
4:53 pm 16:53 Sunny 60 15.6 29 -1.7 31 31 E 12 19 30.43 1030 10 16.0934 N/A
5:53 pm 17:53 Sunny 60 15.6 29 -1.7 31 31 E 10 17 30.42 1030 10 16.0934 N/A
6:53 pm 18:53 Sunny 57 13.9 27 -2.8 32 32 E 12 19 30.42 1030 10 16.0934 N/A
7:53 pm 19:53 Clear 54 12.2 27 -2.8 35 35 E 7 11 30.42 1030 10 16.0934 N/A
8:53 pm 20:53 Clear 48 8.9 32 undefined 54 54 NNE 3 6 30.42 1030 10 16.0934 N/A
9:53 pm 21:53 Clear 46 7.8 30 -1.1 54 54 NE 7 11 30.4 1030 10 16.0934 N/A
10:53 pm 22:53 Clear 42 5.6 33 0.6 71 71 NE 6 9 30.4 1030 10 16.0934 N/A
11:53 pm 23:53 Clear 45 7.2 31 -0.6 58 58 NNE 5 7 30.39 1029 10 16.0934 N/A

Powered by AerisWeather